Home   Weather   Ansbach   Past weeks

Flag for Germany Past Weather in Ansbach, Bavaria, Germany — Yesterday and Last 2 Weeks

Now
55 °F

Clear.


Feels Like: 55 °F
Forecast: 50 / 68 °F
Wind: 2 mph from Southwest

Location: Ansbach / Katterbach

Current Time: Sep 26, 2016 at 12:39:52 AM

Latest Report: Sep 25, 2016 at 11:58 PM


Visibility: N/A

Pressure: 30.17 "Hg

Humidity: 81%

Dew Point: 49 °F

Location of AnsbachLocation

Past Weather in Ansbach — Graph

°F

Ansbach Temperature Yesterday

Maximum temperature yesterday: 73 °F (at 4:58 PM)
Minimum temperature yesterday: 46 °F (at 7:58 AM)
Average temperature yesterday: 59 °F

High & Low Weather Summary for the Past Weeks

 TemperatureHumidityPressure
High86 °F (Sep 12, 3:58 PM)100% (Sep 17, 5:59 PM)30.38 "Hg (Sep 17, 5:59 PM)
Low43 °F (Sep 22, 5:58 AM)31% (Sep 13, 4:58 PM)29.83 "Hg (Sep 15, 3:58 PM)
Average62 °F74%30.07 "Hg
* Reported Sep 10 10:58 PM — Sep 25 10:58 PM, Ansbach, Weather by CustomWeather, © 2016

Note: Actual official high and low records may vary slightly from our data, if they occured in-between our weather recording intervals... More about our weather records

Advertising

Ansbach Weather History for the Previous 24 Hours

Scroll right to see more
 ConditionsComfort  
Time TempWeatherWind HumidityBarometerVisibility
10:58 PM
Sun, Sep 25
56 °FClear.2 mph78%30.18 "HgN/A
9:58 PM60 °FClear.3 mph66%30.17 "HgN/A
8:58 PM63 °FClear.5 mph59%30.17 "HgN/A
7:58 PM65 °FClear.3 mph56%30.17 "HgN/A
6:58 PM67 °FSunny.3 mph53%30.15 "HgN/A
5:58 PM71 °FSunny.5 mph45%30.13 "HgN/A
4:58 PM73 °FSunny.8 mph40%30.13 "HgN/A
3:58 PM71 °FSunny.1 mph43%30.13 "HgN/A
2:58 PM71 °FPassing clouds.3 mph45%30.14 "HgN/A
1:58 PM69 °FSunny.3 mph50%30.15 "HgN/A
12:58 PM67 °FSunny.3 mph56%30.16 "HgN/A
11:58 AM64 °FSunny.2 mph64%30.19 "HgN/A
10:58 AM60 °FSunny.3 mph71%30.19 "HgN/A
9:58 AM56 °FSunny.5 mph80%30.20 "HgN/A
8:58 AM50 °FSunny.2 mph100%30.21 "HgN/A
7:58 AM46 °FSunny.1 mph99%30.22 "HgN/A
6:58 AM47 °FClear.1 mph99%30.21 "HgN/A
5:58 AM48 °FClear.5 mph95%30.20 "HgN/A
4:58 AM48 °FClear.5 mph100%30.21 "HgN/A
3:58 AM48 °FClear.1 mph100%30.21 "HgN/A
2:58 AM50 °FClear.2 mph94%30.22 "HgN/A
1:58 AM52 °FClear.2 mph86%30.23 "HgN/A
12:58 AM54 °FClear.3 mph82%30.23 "HgN/A
Weather by CustomWeather, © 2016

See weather overviewHow to use our weather pages